{"data":{"norad_id":62771,"intl_designator":"2025-015P","name":"STARLINK-33598","alt_names":[],"object_type":"PAYLOAD","status":"ACTIVE","operator":null,"country":"US","launch_date":"2025-01-21","launch_site_code":"AFWTR","launch_vehicle":null,"mission":null,"orbit_class":"UNKNOWN","rcs_meters":null,"size_class":null,"mass_kg":null,"dimensions":null,"purposes":["comms"],"wikipedia_slug":null,"has_3d_model":false,"image_url":null,"decayed_at":null,"tle_current":{"epoch":"2026-09-21T21:19:40.608480Z","epoch_age_seconds":51290,"freshness":"FRESH","line1":"1 62771U 25015P   26264.88866445  .00010406  00000+0  31866-3 0  9992","line2":"2 62771  53.1595 127.3259 0001512 135.6420 224.4704 15.34401072 94577","mean_motion":15.34401072,"eccentricity":0.0001512,"inclination_deg":53.1595,"raan_deg":127.3259,"arg_perigee_deg":135.642,"mean_anomaly_deg":224.4704,"bstar":0.00031866,"rev_number":9457,"period_min":93.847692515168,"perigee_km":461.66571943648,"apogee_km":463.73438856161,"semimajor_km":6840.837053999,"source":"CELESTRAK","updated_at":"2026-09-22T09:00:49.663080Z"}}}